When you browse on this site, cookies collect data to enhance your experience and personalize the content and advertising you see.
Visit our Privacy Policy to learn more. By continuing to use the site, you agree to this use of cookies and data.
  • En España
  • Lista de países
  • Para 7 días
  • Temperatura del agua
  • El tiempo en el mapa
  • Informadores
  • user-avatar
    Iniciar sesión

    Tiempo cada hora Gedzhon

    Hoy, 28 Mayo, Jueves

    Tiempo Temperatura Precipitaciones Viento Presión Humedad
    00:00 +11°C° 0 mm 0 mps 742 mmHg 89%
    01:00 +10°C° 0 mm 0 mps 741 mmHg 89%
    02:00 +10°C° 0 mm 0 mps 741 mmHg 88%
    03:00 +10°C° 0 mm 0 mps 742 mmHg 87%
    04:00 +10°C° 0 mm 0 mps 742 mmHg 86%
    05:00 +10°C° 0 mm 0 mps 742 mmHg 85%
    06:00 +13°C° 0 mm 0 mps 742 mmHg 72%
    07:00 +17°C° 0 mm 0 mps 742 mmHg 60%
    08:00 +20°C° 0 mm 0 mps 742 mmHg 47%
    09:00 +23°C° 0 mm 1 mps 742 mmHg 44%
    10:00 +24°C° 0 mm 2 mps 742 mmHg 40%
    11:00 +25°C° 0 mm 3 mps 742 mmHg 37%
    12:00 +25°C° 0 mm 3 mps 741 mmHg 39%
    13:00 +25°C° 0 mm 3 mps 741 mmHg 41%
    14:00 +25°C° 0 mm 4 mps 741 mmHg 42%
    15:00 +24°C° 0 mm 3 mps 741 mmHg 48%
    16:00 +22°C° 0 mm 3 mps 741 mmHg 54%
    17:00 +21°C° 0 mm 3 mps 741 mmHg 60%
    18:00 +19°C° 0 mm 2 mps 742 mmHg 71%
    19:00 +17°C° 0 mm 2 mps 742 mmHg 81%
    20:00 +15°C° 0 mm 1 mps 743 mmHg 91%
    21:00 +14°C° 0 mm 1 mps 743 mmHg 92%
    22:00 +13°C° 0 mm 1 mps 744 mmHg 93%
    23:00 +12°C° 0 mm 0 mps 744 mmHg 95%

    Mañana, 29 Mayo, Viernes

    Tiempo Temperatura Precipitaciones Viento Presión Humedad
    00:00 +12°C° 0 mm 0 mps 744 mmHg 95%
    01:00 +11°C° 0 mm 0 mps 744 mmHg 95%
    02:00 +11°C° 0 mm 0 mps 744 mmHg 96%
    03:00 +11°C° 0 mm 0 mps 744 mmHg 96%
    04:00 +11°C° 0 mm 0 mps 745 mmHg 96%
    05:00 +11°C° 0 mm 0 mps 745 mmHg 96%
    06:00 +14°C° 0 mm 0 mps 745 mmHg 84%
    07:00 +18°C° 0 mm 0 mps 746 mmHg 72%
    08:00 +21°C° 0 mm 0 mps 746 mmHg 60%
    09:00 +24°C° 0 mm 1 mps 746 mmHg 52%
    10:00 +26°C° 0 mm 1 mps 746 mmHg 45%
    11:00 +28°C° 0 mm 1 mps 747 mmHg 37%
    12:00 +28°C° 0 mm 1 mps 746 mmHg 35%
    13:00 +28°C° 0 mm 2 mps 746 mmHg 33%
    14:00 +28°C° 0 mm 2 mps 746 mmHg 31%
    15:00 +28°C° 0 mm 2 mps 746 mmHg 37%
    16:00 +27°C° 0 mm 1 mps 746 mmHg 43%
    17:00 +26°C° 0 mm 1 mps 746 mmHg 49%
    18:00 +23°C° 0 mm 1 mps 747 mmHg 55%
    19:00 +21°C° 0 mm 1 mps 747 mmHg 61%
    20:00 +17°C° 0 mm 0 mps 747 mmHg 67%
    21:00 +16°C° 0 mm 0 mps 748 mmHg 69%
    22:00 +16°C° 0 mm 0 mps 748 mmHg 70%
    23:00 +16°C° 0 mm 1 mps 748 mmHg 71%

    Pasado mañana, 30 Mayo, Sábado

    Tiempo Temperatura Precipitaciones Viento Presión Humedad
    00:00 +15°C° 0 mm 0 mps 748 mmHg 73%
    01:00 +14°C° 0 mm 0 mps 748 mmHg 74%
    02:00 +14°C° 0 mm 0 mps 748 mmHg 76%
    03:00 +14°C° 0 mm 0 mps 748 mmHg 76%
    04:00 +15°C° 0 mm 1 mps 748 mmHg 77%
    05:00 +15°C° 0 mm 1 mps 749 mmHg 77%
    06:00 +19°C° 0 mm 1 mps 749 mmHg 69%
    07:00 +22°C° 0 mm 1 mps 749 mmHg 60%
    08:00 +25°C° 0 mm 1 mps 749 mmHg 52%
    09:00 +27°C° 0 mm 1 mps 749 mmHg 46%
    10:00 +29°C° 0 mm 1 mps 748 mmHg 41%
    11:00 +31°C° 0 mm 1 mps 748 mmHg 36%
    12:00 +30°C° 0 mm 1 mps 748 mmHg 35%
    13:00 +30°C° 0 mm 1 mps 747 mmHg 35%
    14:00 +30°C° 0 mm 2 mps 747 mmHg 34%
    15:00 +28°C° 0 mm 1 mps 746 mmHg 44%
    16:00 +25°C° 0 mm 2 mps 746 mmHg 54%
    17:00 +23°C° 0 mm 2 mps 746 mmHg 64%
    18:00 +22°C° 0 mm 1 mps 746 mmHg 66%
    19:00 +21°C° 0 mm 1 mps 746 mmHg 68%
    20:00 +20°C° 0 mm 1 mps 746 mmHg 70%
    21:00 +20°C° 0 mm 1 mps 746 mmHg 72%
    22:00 +19°C° 0 mm 1 mps 747 mmHg 75%
    23:00 +18°C° 0 mm 1 mps 747 mmHg 77%

    31 Mayo, Domingo

    Tiempo Temperatura Precipitaciones Viento Presión Humedad
    00:00 +15°C° 0 mm 0 mps 747 mmHg 78%
    01:00 +15°C° 0 mm 0 mps 747 mmHg 80%
    02:00 +14°C° 0 mm 0 mps 747 mmHg 81%
    03:00 +14°C° 0 mm 0 mps 747 mmHg 81%
    04:00 +15°C° 0 mm 1 mps 747 mmHg 81%
    05:00 +15°C° 0 mm 1 mps 747 mmHg 81%
    06:00 +17°C° 0 mm 0 mps 747 mmHg 72%
    07:00 +20°C° 0 mm 0 mps 747 mmHg 63%
    08:00 +23°C° 0 mm 0 mps 747 mmHg 54%
    09:00 +24°C° 0 mm 0 mps 746 mmHg 49%
    10:00 +28°C° 0 mm 1 mps 746 mmHg 44%
    11:00 +29°C° 0 mm 1 mps 746 mmHg 39%
    12:00 +28°C° 0 mm 1 mps 745 mmHg 43%
    13:00 +27°C° 0 mm 2 mps 745 mmHg 47%
    14:00 +26°C° 0 mm 2 mps 744 mmHg 51%
    15:00 +26°C° 0 mm 2 mps 744 mmHg 55%
    16:00 +25°C° 0 mm 3 mps 744 mmHg 59%
    17:00 +25°C° 0 mm 3 mps 743 mmHg 63%
    18:00 +23°C° 0 mm 2 mps 743 mmHg 71%
    19:00 +22°C° 0 mm 1 mps 744 mmHg 78%
    20:00 +20°C° 0 mm 1 mps 744 mmHg 86%
    21:00 +20°C° 0 mm 1 mps 744 mmHg 85%
    22:00 +18°C° 0 mm 0 mps 744 mmHg 85%
    23:00 +18°C° 0 mm 0 mps 744 mmHg 85%

    1 Junio, Lunes

    Tiempo Temperatura Precipitaciones Viento Presión Humedad
    00:00 +18°C° 0.1 mm 0 mps 743 mmHg 86%
    01:00 +18°C° 0.1 mm 0 mps 743 mmHg 87%
    02:00 +20°C° 0.1 mm 1 mps 743 mmHg 88%
    03:00 +20°C° 0.1 mm 1 mps 742 mmHg 89%
    04:00 +20°C° 0.1 mm 1 mps 742 mmHg 91%
    05:00 +20°C° 0.1 mm 1 mps 742 mmHg 92%
    06:00 +20°C° 0 mm 1 mps 742 mmHg 90%
    07:00 +20°C° 0 mm 2 mps 742 mmHg 88%
    08:00 +21°C° 0 mm 2 mps 742 mmHg 86%
    09:00 +22°C° 0.1 mm 3 mps 741 mmHg 81%
    10:00 +22°C° 0.1 mm 3 mps 741 mmHg 77%
    11:00 +23°C° 0.1 mm 4 mps 741 mmHg 73%
    12:00 +25°C° 0 mm 4 mps 741 mmHg 65%
    13:00 +26°C° 0 mm 4 mps 740 mmHg 56%
    14:00 +28°C° 0 mm 5 mps 740 mmHg 48%
    15:00 +26°C° 0 mm 5 mps 740 mmHg 52%
    16:00 +25°C° 0 mm 5 mps 740 mmHg 55%
    17:00 +23°C° 0 mm 4 mps 740 mmHg 59%
    18:00 +21°C° 0 mm 4 mps 740 mmHg 70%
    19:00 +19°C° 0 mm 3 mps 740 mmHg 82%
    20:00 +17°C° 0 mm 2 mps 741 mmHg 94%
    21:00 +17°C° 0 mm 2 mps 741 mmHg 94%
    22:00 +16°C° 0 mm 2 mps 741 mmHg 94%
    23:00 +16°C° 0 mm 2 mps 741 mmHg 95%

    2 Junio, Martes

    Tiempo Temperatura Precipitaciones Viento Presión Humedad
    00:00 +16°C° 0 mm 2 mps 741 mmHg 95%
    01:00 +16°C° 0 mm 2 mps 741 mmHg 96%
    02:00 +15°C° 0 mm 2 mps 741 mmHg 96%
    03:00 +15°C° 0 mm 2 mps 741 mmHg 96%
    04:00 +15°C° 0 mm 1 mps 741 mmHg 95%
    05:00 +15°C° 0 mm 1 mps 741 mmHg 94%
    06:00 +18°C° 0 mm 2 mps 741 mmHg 80%
    07:00 +20°C° 0 mm 3 mps 741 mmHg 65%
    08:00 +23°C° 0 mm 4 mps 741 mmHg 51%
    09:00 +26°C° 0 mm 5 mps 740 mmHg 50%
    10:00 +28°C° 0 mm 7 mps 740 mmHg 50%
    11:00 +29°C° 0 mm 8 mps 740 mmHg 50%
    12:00 +29°C° 0.1 mm 8 mps 739 mmHg 51%
    13:00 +29°C° 0.1 mm 9 mps 739 mmHg 53%
    14:00 +28°C° 0.1 mm 9 mps 738 mmHg 55%
    15:00 +27°C° 0 mm 8 mps 738 mmHg 60%
    16:00 +24°C° 0 mm 7 mps 738 mmHg 66%
    17:00 +23°C° 0 mm 7 mps 738 mmHg 71%
    18:00 +21°C° 0 mm 6 mps 738 mmHg 77%
    19:00 +20°C° 0 mm 5 mps 739 mmHg 83%
    20:00 +19°C° 0 mm 4 mps 739 mmHg 88%
    21:00 +18°C° 0 mm 3 mps 739 mmHg 91%
    22:00 +18°C° 0 mm 3 mps 739 mmHg 93%
    23:00 +17°C° 0 mm 2 mps 739 mmHg 95%
    Mostrar más